EN

Hourly Weather Otjiwarongo

Today, 1 March, Monday

Time Temperature Precipitation Wind Pressure Humidity
00:00 +23°C° 0 mm 6 mps 660 mmHg 49%
01:00 +22°C° 0 mm 6 mps 660 mmHg 54%
02:00 +22°C° 0 mm 5 mps 659 mmHg 58%
03:00 +21°C° 0 mm 5 mps 659 mmHg 62%
04:00 +20°C° 0 mm 5 mps 659 mmHg 65%
05:00 +20°C° 0 mm 5 mps 659 mmHg 65%
06:00 +21°C° 0 mm 5 mps 660 mmHg 65%
07:00 +21°C° 0 mm 6 mps 660 mmHg 63%
08:00 +23°C° 0 mm 5 mps 661 mmHg 56%
09:00 +25°C° 0 mm 5 mps 661 mmHg 49%
10:00 +27°C° 0 mm 5 mps 662 mmHg 41%
11:00 +28°C° 0 mm 5 mps 661 mmHg 38%
12:00 +29°C° 0 mm 6 mps 661 mmHg 35%
13:00 +30°C° 0 mm 4 mps 661 mmHg 30%
14:00 +29°C° 0 mm 4 mps 660 mmHg 31%
15:00 +29°C° 0 mm 5 mps 660 mmHg 33%
16:00 +29°C° 0 mm 5 mps 659 mmHg 35%
17:00 +28°C° 0 mm 4 mps 660 mmHg 36%
18:00 +27°C° 0 mm 4 mps 660 mmHg 37%
19:00 +27°C° 0 mm 4 mps 660 mmHg 38%
20:00 +26°C° 0 mm 5 mps 660 mmHg 42%
21:00 +25°C° 0 mm 5 mps 660 mmHg 46%
22:00 +23°C° 0 mm 6 mps 660 mmHg 50%
23:00 +22°C° 0 mm 6 mps 660 mmHg 51%

Tomorrow, 2 March, Tuesday

Time Temperature Precipitation Wind Pressure Humidity
00:00 +22°C° 0 mm 6 mps 660 mmHg 52%
01:00 +21°C° 0 mm 7 mps 660 mmHg 53%
02:00 +21°C° 0 mm 6 mps 660 mmHg 57%
03:00 +20°C° 0 mm 5 mps 660 mmHg 61%
04:00 +20°C° 0 mm 5 mps 660 mmHg 65%
05:00 +20°C° 0 mm 5 mps 660 mmHg 64%
06:00 +20°C° 0 mm 5 mps 661 mmHg 62%
07:00 +21°C° 0 mm 5 mps 661 mmHg 61%
08:00 +22°C° 0 mm 5 mps 661 mmHg 54%
09:00 +25°C° 0 mm 5 mps 662 mmHg 47%
10:00 +27°C° 0 mm 5 mps 662 mmHg 41%
11:00 +28°C° 0 mm 4 mps 662 mmHg 37%
12:00 +29°C° 0 mm 3 mps 661 mmHg 33%
13:00 +30°C° 0 mm 3 mps 661 mmHg 29%
14:00 +30°C° 0 mm 2 mps 661 mmHg 28%
15:00 +30°C° 0 mm 2 mps 660 mmHg 26%
16:00 +31°C° 0 mm 2 mps 660 mmHg 25%
17:00 +30°C° 0 mm 3 mps 660 mmHg 28%
18:00 +29°C° 0 mm 4 mps 660 mmHg 32%
19:00 +27°C° 0 mm 5 mps 660 mmHg 35%
20:00 +27°C° 0 mm 5 mps 660 mmHg 38%
21:00 +26°C° 0 mm 4 mps 660 mmHg 40%
22:00 +25°C° 0 mm 4 mps 660 mmHg 43%
23:00 +23°C° 0 mm 4 mps 660 mmHg 44%

Day after tomorrow, 3 March, Wednesday

Time Temperature Precipitation Wind Pressure Humidity
00:00 +23°C° 0 mm 5 mps 660 mmHg 46%
01:00 +22°C° 0 mm 5 mps 659 mmHg 47%
02:00 +22°C° 0 mm 5 mps 659 mmHg 50%
03:00 +21°C° 0 mm 5 mps 659 mmHg 53%
04:00 +21°C° 0 mm 5 mps 659 mmHg 56%
05:00 +21°C° 0 mm 5 mps 659 mmHg 51%
06:00 +22°C° 0 mm 4 mps 660 mmHg 50%
07:00 +22°C° 0 mm 4 mps 660 mmHg 49%
08:00 +25°C° 0 mm 4 mps 660 mmHg 43%
09:00 +26°C° 0 mm 4 mps 661 mmHg 37%
10:00 +28°C° 0 mm 3 mps 661 mmHg 32%
11:00 +29°C° 0 mm 3 mps 661 mmHg 29%
12:00 +30°C° 0 mm 3 mps 660 mmHg 26%
13:00 +31°C° 0 mm 2 mps 660 mmHg 23%
14:00 +31°C° 0 mm 2 mps 660 mmHg 22%
15:00 +32°C° 0 mm 2 mps 659 mmHg 21%
16:00 +32°C° 0 mm 1 mps 659 mmHg 20%
17:00 +31°C° 0 mm 1 mps 659 mmHg 22%
18:00 +30°C° 0 mm 2 mps 659 mmHg 24%
19:00 +29°C° 0 mm 2 mps 659 mmHg 26%
20:00 +28°C° 0 mm 3 mps 659 mmHg 29%
21:00 +27°C° 0 mm 3 mps 659 mmHg 33%
22:00 +26°C° 0 mm 4 mps 659 mmHg 36%
23:00 +25°C° 0 mm 4 mps 659 mmHg 40%

4 March, Thursday

Time Temperature Precipitation Wind Pressure Humidity
00:00 +25°C° 0 mm 4 mps 658 mmHg 43%
01:00 +23°C° 0 mm 5 mps 658 mmHg 47%
02:00 +23°C° 0 mm 5 mps 658 mmHg 47%
03:00 +22°C° 0 mm 4 mps 658 mmHg 48%
04:00 +22°C° 0 mm 4 mps 658 mmHg 49%
05:00 +22°C° 0 mm 4 mps 658 mmHg 48%
06:00 +23°C° 0 mm 4 mps 658 mmHg 46%
07:00 +23°C° 0 mm 4 mps 659 mmHg 45%
08:00 +26°C° 0 mm 4 mps 659 mmHg 39%
09:00 +28°C° 0 mm 3 mps 659 mmHg 33%
10:00 +30°C° 0 mm 3 mps 660 mmHg 27%
11:00 +31°C° 0 mm 3 mps 660 mmHg 24%
12:00 +32°C° 0 mm 2 mps 659 mmHg 21%
13:00 +34°C° 0 mm 2 mps 659 mmHg 17%
14:00 +34°C° 0 mm 2 mps 659 mmHg 17%
15:00 +34°C° 0 mm 2 mps 658 mmHg 17%
16:00 +34°C° 0 mm 2 mps 658 mmHg 17%
17:00 +32°C° 0 mm 2 mps 658 mmHg 19%
18:00 +31°C° 0 mm 3 mps 658 mmHg 22%
19:00 +30°C° 0 mm 3 mps 658 mmHg 24%
20:00 +29°C° 0 mm 4 mps 658 mmHg 26%
21:00 +28°C° 0 mm 4 mps 658 mmHg 29%
22:00 +27°C° 0 mm 4 mps 658 mmHg 31%
23:00 +27°C° 0 mm 4 mps 658 mmHg 32%

5 March, Friday

Time Temperature Precipitation Wind Pressure Humidity
00:00 +26°C° 0 mm 4 mps 658 mmHg 34%
01:00 +26°C° 0 mm 4 mps 658 mmHg 35%
02:00 +25°C° 0 mm 4 mps 658 mmHg 37%
03:00 +25°C° 0 mm 4 mps 658 mmHg 38%
04:00 +23°C° 0 mm 4 mps 658 mmHg 40%
05:00 +25°C° 0 mm 5 mps 658 mmHg 39%
06:00 +26°C° 0 mm 5 mps 659 mmHg 38%
07:00 +26°C° 0 mm 5 mps 659 mmHg 37%
08:00 +28°C° 0 mm 5 mps 660 mmHg 32%
09:00 +30°C° 0 mm 4 mps 660 mmHg 26%
10:00 +33°C° 0 mm 4 mps 661 mmHg 21%
11:00 +34°C° 0 mm 4 mps 660 mmHg 20%
12:00 +34°C° 0 mm 3 mps 660 mmHg 19%
13:00 +34°C° 0 mm 3 mps 660 mmHg 18%
14:00 +34°C° 0 mm 2 mps 659 mmHg 19%
15:00 +34°C° 0 mm 2 mps 659 mmHg 19%
16:00 +34°C° 0 mm 2 mps 659 mmHg 19%
17:00 +31°C° 0 mm 2 mps 658 mmHg 21%
18:00 +30°C° 0 mm 2 mps 658 mmHg 24%
19:00 +29°C° 0 mm 2 mps 658 mmHg 26%
20:00 +28°C° 0 mm 2 mps 659 mmHg 27%
21:00 +28°C° 0 mm 2 mps 659 mmHg 27%
22:00 +27°C° 0 mm 2 mps 659 mmHg 28%
23:00 +27°C° 0 mm 2 mps 659 mmHg 28%

6 March, Saturday

Time Temperature Precipitation Wind Pressure Humidity
00:00 +26°C° 0 mm 3 mps 659 mmHg 29%
01:00 +26°C° 0 mm 4 mps 659 mmHg 29%
02:00 +26°C° 0 mm 4 mps 660 mmHg 24%
03:00 +25°C° 0 mm 5 mps 660 mmHg 19%
04:00 +25°C° 0 mm 5 mps 660 mmHg 14%
05:00 +25°C° 0 mm 5 mps 660 mmHg 15%
06:00 +25°C° 0 mm 5 mps 661 mmHg 16%
07:00 +23°C° 0 mm 5 mps 661 mmHg 18%
08:00 +26°C° 0 mm 5 mps 661 mmHg 16%
09:00 +29°C° 0 mm 4 mps 662 mmHg 14%
10:00 +32°C° 0 mm 4 mps 662 mmHg 12%
11:00 +31°C° 0 mm 3 mps 662 mmHg 13%
12:00 +32°C° 0 mm 2 mps 662 mmHg 13%
13:00 +33°C° 0 mm 1 mps 661 mmHg 14%
14:00 +33°C° 0 mm 1 mps 661 mmHg 14%
15:00 +35°C° 0 mm 2 mps 661 mmHg 14%
16:00 +35°C° 0 mm 2 mps 660 mmHg 14%
17:00 +32°C° 0 mm 2 mps 660 mmHg 15%
18:00 +31°C° 0 mm 2 mps 660 mmHg 17%
19:00 +30°C° 0 mm 2 mps 659 mmHg 18%
20:00 +29°C° 0 mm 2 mps 660 mmHg 19%
21:00 +28°C° 0 mm 2 mps 660 mmHg 20%
22:00 +28°C° 0 mm 2 mps 660 mmHg 20%
23:00 +27°C° 0 mm 3 mps 660 mmHg 21%
Show more

We Need Your Consent

Meteoprog and our Service Providers may store and access personal data such as cookies, device identifiers or other similar technologies on your device and process such data to personalise content and ads, as well as provide social media features and to analyse the traffic.

  • Store and/or access information on your device

    Cookies, device identifiers or other information can be stored or accessed on your device for the purposes indicated above.

  • Personalised ads and content, ad and content measurement, audience insights, and products development

    Ads and content can be personalised based on a profile. More data can be added to better personalise ads and content. Ad and content performance can be measured. Insights about the audience who saw the ads and content can be derived. Such data can be used to develop or improve user’s experience, systems and software.

By clicking ‘I Agree’ you will allow the use of indicated cookies, device identifiers, web beacons or other similar technologies. Your settings can be changed in the browser on your device.

For certain purposes, legitimate interests may be relied on, rather than consent. You can read more about this in our Privacy and Cookie Policy.